Weather History for Scappoose, OR

Change the Weather History Date:

Monday, September 30, 2013

  Actual Average Record
Temperature  
Mean Temperature 54 °F -  
Max Temperature 63 °F - 82 °F (2001)
Min Temperature 46 °F - 41 °F (2006)
Degree Days  
Heating Degree Days 10    
Month to date heating degree days 128  
Since 1 July heating degree days 152  
Cooling Degree Days 0    
Month to date cooling degree days 72  
Year to date cooling degree days 396  
Growing Degree Days 4 (Base 50)    
Moisture  
Dew Point 48 °F    
Average Humidity 79    
Maximum Humidity 93    
Minimum Humidity 64    
Precipitation  
Precipitation 0.29 in - 1.02 in (2005)
Month to date precipitation 7.11  
Year to date precipitation 21.65  
Sea Level Pressure  
Sea Level Pressure 29.81 in    
Wind  
Wind Speed 5 mph (South)    
Max Wind Speed 16 mph    
Max Gust Speed 25 mph    
Visibility 9 miles    
Events Rain    
T = Trace of Precipitation, MM = Missing Value Source: NWS Daily Summary

Daily Weather History Graph

Daily Weather History Graph

Search for Another Location

Airport:

Trip Planner

Search our weather history database for the weather conditions in past years. The results will help you decide how hot, cold, wet, or windy it might be!

Date:

Astronomy

Sep. 30, 2013 Rise Set
Actual Time 7:08 AM PDT 6:52 PM PDT
Civil Twilight 6:39 AM PDT 7:22 PM PDT
Nautical Twilight 6:04 AM PDT 7:56 PM PDT
Astronomical Twilight 5:29 AM PDT 8:31 PM PDT
Moon 2:39 AM PDT (9/30) 4:36 PM PDT (9/30)
Length of Visible Light 12h 43m
Length of Day
11h 43m
Waning Crescent, 18% of the Moon is Illuminated
Sep 30
Waning Crescent
Oct 4
New
Oct 11
First Quarter
Oct 18
Full
Oct 26
Last Quarter

Hourly Weather History & Observations

Time (PDT) Temp. Dew Point Humidity Pressure Visibility Wind Dir Wind Speed Gust Speed Precip Events Conditions
12:53 AM 46.0 °F 44.1 °F 93% 29.60 in 10.0 mi Calm Calm - N/A   Overcast
1:53 AM 48.9 °F 45.0 °F 86% 29.62 in 10.0 mi WSW 3.5 mph - N/A   Overcast
2:53 AM 51.1 °F 46.0 °F 83% 29.64 in 10.0 mi SE 3.5 mph - 0.01 in Rain Light Rain
3:53 AM 52.0 °F 46.0 °F 80% 29.64 in 10.0 mi Calm Calm - 0.00 in   Overcast
4:53 AM 52.0 °F 46.9 °F 83% 29.68 in 5.0 mi SW 4.6 mph - 0.03 in Rain Light Rain
5:53 AM 52.0 °F 48.0 °F 86% 29.68 in 10.0 mi SSW 6.9 mph - 0.05 in Rain Light Rain
6:03 AM 51.8 °F 48.2 °F 88% 29.69 in 9.0 mi SSW 6.9 mph - 0.00 in Rain Light Rain
6:20 AM 51.8 °F 48.2 °F 88% 29.69 in 10.0 mi SSW 5.8 mph - 0.01 in Rain Light Rain
6:53 AM 52.0 °F 48.0 °F 86% 29.72 in 8.0 mi SSW 6.9 mph 16.1 mph 0.04 in Rain Light Rain
7:53 AM 52.0 °F 48.9 °F 89% 29.76 in 8.0 mi South 3.5 mph - 0.03 in Rain Light Rain
8:11 AM 51.8 °F 48.2 °F 88% 29.75 in 4.0 mi SSE 4.6 mph - 0.03 in Rain Rain
8:20 AM 51.8 °F 48.2 °F 88% 29.76 in 8.0 mi SSE 6.9 mph - 0.03 in Rain Light Rain
8:53 AM 53.1 °F 48.9 °F 86% 29.77 in 10.0 mi SSE 5.8 mph - 0.03 in   Partly Cloudy
9:15 AM 53.6 °F 50.0 °F 88% 29.79 in 10.0 mi SSE 6.9 mph - 0.00 in Rain Light Rain
9:48 AM 53.6 °F 50.0 °F 88% 29.80 in 5.0 mi South 5.8 mph - 0.04 in Rain Light Rain
9:53 AM 53.1 °F 50.0 °F 89% 29.80 in 5.0 mi South 3.5 mph - 0.04 in Rain Light Rain
10:15 AM 53.6 °F 51.8 °F 94% 29.81 in 10.0 mi SSE 5.8 mph - 0.02 in Rain Light Rain
10:53 AM 54.0 °F 51.1 °F 90% 29.83 in 10.0 mi South 4.6 mph - 0.03 in Rain Light Rain
11:53 AM 57.9 °F 50.0 °F 75% 29.84 in 10.0 mi SSW 3.5 mph - 0.01 in   Mostly Cloudy
12:53 PM 59.0 °F 50.0 °F 72% 29.87 in 10.0 mi South 8.1 mph - N/A   Overcast
1:53 PM 61.0 °F 48.9 °F 64% 29.88 in 10.0 mi SW 10.4 mph 16.1 mph 0.00 in   Partly Cloudy
2:53 PM 59.0 °F 48.0 °F 67% 29.91 in 10.0 mi SW 10.4 mph 16.1 mph 0.00 in Rain Light Rain
3:53 PM 59.0 °F 46.9 °F 64% 29.92 in 10.0 mi South 8.1 mph - 0.01 in   Mostly Cloudy
4:53 PM 55.9 °F 45.0 °F 67% 29.94 in 10.0 mi SW 11.5 mph - 0.00 in Rain Light Rain
5:53 PM 57.0 °F 46.0 °F 67% 29.94 in 10.0 mi Variable 3.5 mph - 0.01 in   Scattered Clouds
6:53 PM 53.1 °F 46.9 °F 80% 29.95 in 10.0 mi SSE 4.6 mph - N/A   Overcast
7:53 PM 51.1 °F 48.0 °F 89% 29.97 in 10.0 mi Calm Calm - 0.00 in   Mostly Cloudy
8:53 PM 48.9 °F 46.0 °F 90% 29.98 in 10.0 mi Variable 3.5 mph - 0.00 in   Mostly Cloudy
9:53 PM 48.0 °F 46.0 °F 93% 29.98 in 10.0 mi Calm Calm - 0.00 in Rain Light Rain
10:53 PM 50.0 °F 46.9 °F 89% 29.99 in 10.0 mi South 4.6 mph - 0.00 in   Overcast
11:53 PM 51.1 °F 46.0 °F 83% 29.98 in 10.0 mi SSW 4.6 mph - N/A   Mostly Cloudy